Weather History for McCall, ID

Change the Weather History Date:

Monday, February 18, 2013

  Actual Average Record
Temperature  
Mean Temperature 16 °F 22 °F  
Max Temperature 30 °F 34 °F 52 °F (1930)
Min Temperature 2 °F 11 °F -25 °F (1942)
Degree Days  
Heating Degree Days 49 43  
Month to date heating degree days 715 786  
Since 1 July heating degree days 5568 6260  
Cooling Degree Days 0 0  
Month to date cooling degree days 0 0  
Year to date cooling degree days 0 0  
Moisture  
Dew Point 8 °F    
Average Humidity 71    
Maximum Humidity 92    
Minimum Humidity 50    
Precipitation  
Precipitation 0.00 in 0.05 in 0.68 in (1980)
Month to date precipitation 0.14 1.14  
Year to date precipitation 3.04 2.87  
Sea Level Pressure  
Sea Level Pressure 30.07 in    
Wind  
Wind Speed 1 mph (NE)    
Max Wind Speed 7 mph    
Max Gust Speed 9 mph    
Visibility 10 miles    
Events      
T = Trace of Precipitation, MM = Missing Value Source: NWS Daily Summary

Daily Weather History Graph

Daily Weather History Graph

Search for Another Location

Airport:

Trip Planner

Search our weather history database for the weather conditions in past years. The results will help you decide how hot, cold, wet, or windy it might be!

Date:

Astronomy

Feb. 18, 2013 Rise Set
Actual Time 7:39 AM MST 6:17 PM MST
Civil Twilight 7:10 AM MST 6:47 PM MST
Nautical Twilight 6:35 AM MST 7:21 PM MST
Astronomical Twilight 6:02 AM MST 7:55 PM MST
Moon 11:58 AM MST (2/18) 2:30 AM MST (2/18)
Length of Visible Light 11h 37m
Length of Day
10h 37m
First Quarter, 59% of the Moon is Illuminated
Feb 18
First Quarter
Feb 25
Full
Mar 4
Last Quarter
Mar 11
New
Mar 19
First Quarter

Hourly Weather History & Observations

Time (MST) Temp. Windchill Dew Point Humidity Pressure Visibility Wind Dir Wind Speed Gust Speed Precip Events Conditions
12:51 AM 9.0 °F - 6.1 °F 88% 30.19 in 10.0 mi Calm Calm - N/A   Clear
1:51 AM 9.0 °F - 3.9 °F 80% 30.19 in 10.0 mi Calm Calm - N/A   Partly Cloudy
2:51 AM 8.1 °F - 3.9 °F 83% 30.19 in 10.0 mi Calm Calm - N/A   Mostly Cloudy
3:51 AM 8.1 °F - 3.9 °F 83% 30.18 in 10.0 mi Calm Calm - N/A   Clear
4:51 AM 6.1 °F -0.9 °F 1.0 °F 80% 30.17 in 10.0 mi NNW 3.5 mph - N/A   Clear
6:51 AM 5.0 °F - 1.0 °F 84% 30.18 in 10.0 mi Calm Calm - N/A   Clear
7:20 AM 5.0 °F - -0.4 °F 78% 30.00 in 10.0 mi Calm Calm - N/A   Partly Cloudy
7:51 AM 3.0 °F - -0.9 °F 84% 30.20 in 10.0 mi Calm Calm - N/A   Clear
8:27 AM 3.2 °F - 1.4 °F 92% 30.00 in 10.0 mi Calm Calm - N/A   Partly Cloudy
8:40 AM 6.8 °F - 3.2 °F 85% 29.99 in 10.0 mi Calm Calm - N/A   Mostly Cloudy
8:51 AM 6.1 °F - 3.9 °F 91% 30.19 in 10.0 mi Calm Calm - N/A   Mostly Cloudy
9:12 AM 8.6 °F - 6.8 °F 92% 29.99 in 10.0 mi Calm Calm - N/A   Scattered Clouds
9:51 AM 9.0 °F - 7.0 °F 92% 30.18 in 10.0 mi Calm Calm - N/A   Clear
10:51 AM 12.0 °F - 10.9 °F 95% 30.18 in 10.0 mi Calm Calm - N/A   Clear
11:51 AM 16.0 °F 10.4 °F 12.9 °F 88% 30.17 in 10.0 mi South 3.5 mph - N/A   Clear
12:51 PM 19.9 °F - 14.0 °F 78% 30.12 in 10.0 mi Calm Calm - N/A   Clear
1:51 PM 24.1 °F - 15.1 °F 69% 30.07 in 10.0 mi Calm Calm - N/A   Scattered Clouds
2:51 PM 25.0 °F - 15.1 °F 66% 30.05 in 10.0 mi Calm Calm - N/A   Mostly Cloudy
3:51 PM 28.0 °F - 12.0 °F 51% 30.02 in 10.0 mi Calm Calm - N/A   Overcast
4:51 PM 28.9 °F 25.2 °F 12.0 °F 49% 29.99 in 10.0 mi East 3.5 mph - N/A   Clear
5:51 PM 28.9 °F 25.2 °F 12.0 °F 49% 29.99 in 10.0 mi NNE 3.5 mph - N/A   Mostly Cloudy
6:51 PM 26.1 °F 21.9 °F 16.0 °F 66% 29.98 in 10.0 mi West 3.5 mph - N/A   Clear
7:51 PM 23.0 °F - 14.0 °F 68% 29.98 in 10.0 mi Calm Calm - N/A   Clear
8:51 PM 21.0 °F 14.6 °F 12.0 °F 68% 29.95 in 10.0 mi NE 4.6 mph - N/A   Clear
9:51 PM 18.0 °F - 10.9 °F 74% 29.94 in 10.0 mi Calm Calm - N/A   Clear
10:51 PM 15.1 °F - 10.9 °F 84% 29.91 in 10.0 mi Calm Calm - N/A   Clear
11:51 PM 19.0 °F 13.9 °F 10.9 °F 71% 29.86 in 10.0 mi NNE 3.5 mph - N/A   Partly Cloudy